Miscellaneous Local Product
Issued by NWS North Platte, NE

Home | Current Version | Previous Version | Graphics & Text | Print | Product List | Glossary On
Versions: 1 2 3 4 5 6 7 8 9 10 11 12 13 14 15 16 17 18 19 20 21 22 23 24 25 26 27 28 29 30 31 32 33 34 35 36 37 38 39 40 41 42 43 44 45 46 47 48 49 50
000
AXUS43 KLBF 210610
MISLBF


WESTERN AND NORTH CENTRAL NEBRASKA HOURLY WEATHER ROUNDUP
NATIONAL WEATHER SERVICE NORTH PLATTE NE
1200 AM CST TUE NOV 21 2017

NOTE: "FAIR" INDICATES FEW OR NO CLOUDS BELOW 12,000 FEET WITH NO
SIGNIFICANT WEATHER AND/OR OBSTRUCTIONS TO VISIBILITY.

NOTE: STATIONS NOT REPORTING VARIABLES SUCH AS SKY/WEATHER OR
PRESSURE ARE PROVIDED BY RAWS AND APRS NETWORKS AND ARE NOT UNDER
NATIONAL WEATHER SERVICE QUALITY CONTROL.

...OBSERVATIONS IN AND NEAR THE EASTERN PANHANDLE OF NEBRASKA...

CITY           SKY/WX    TMP DP  RH WIND       PRES   REMARKS
PINE RIDGE     PTCLDY    31  22  69 VRB3      29.79R
GORDON         FAIR      34  25  69 CALM      29.78R
CHADRON        CLOUDY    34  27  75 CALM      29.80R
ALLIANCE       CLOUDY    51  27  39 NW10      29.78R
SIDNEY         CLOUDY    53  14  21 W10       29.82R
$$

...OBSERVATIONS IN NORTHERN NEBRASKA AND FAR SOUTHERN SOUTH DAKOTA...

CITY           SKY/WX    TMP DP  RH WIND       PRES   REMARKS
WINNER         CLOUDY    44  27  51 N15       29.82R
VALENTINE      CLOUDY    35  24  64 W7        29.80R WCI  29
THEDFORD       CLOUDY    33  24  70 W5        29.79F WCI  28
AINSWORTH      CLOUDY    37  24  60 W7        29.78R WCI  31
O`NEILL        PTCLDY    40  24  52 NW8       29.76R WCI  34
ORD            CLEAR     33  24  69 NW10      29.75R WCI  25
BROKEN BOW     CLEAR     32  22  66 CALM      29.77R
VALENTINE NWR    N/A     34  21  59 CALM        N/A
HALSEY           N/A     38  19  46 W3          N/A
BUTTE            N/A     45  27  49 N14G22      N/A
CHAMBERS         N/A     35  17  47 W7          N/A  WCI  29
EWING            N/A     46  26  46 N7          N/A
$$

...OBSERVATIONS IN SOUTHWEST NEBRASKA AND FAR NORTHEAST COLORADO...

CITY           SKY/WX    TMP DP  RH WIND       PRES   REMARKS
HOLYOKE        FAIR      46  19  34 NW7       29.81S
IMPERIAL       CLOUDY    48  22  35 N8        29.80S
OGALLALA       CLOUDY    52  20  29 NW12      29.79R
NORTH PLATTE   PTCLDY    33  25  72 CALM      29.79S
MCCOOK         CLOUDY    48  27  44 N10       29.78F
LEXINGTON      CLOUDY    40  28  60 W10       29.79R WCI  34
STAPLETON        N/A     37  23  56 CALM        N/A
GOTHENBURG       N/A     42  21  43 NW3         N/A
CALLAWAY         N/A     37  22  54 CALM        N/A
$$

...OBSERVATIONS IN CENTRAL LINCOLN COUNTY AREA...

CITY           SKY/WX    TMP DP  RH WIND       PRES   REMARKS
N.P. AIRPORT   PTCLDY    33  25  72 CALM      29.79S
N.P. DOWNTOWN    N/A     38  26  62 CALM        N/A
N.P. SOUTHEAST   N/A     40  26  56 CALM        N/A
N.P. HILLCREST   N/A     45  26  47 N3          N/A
$$

...SOME OBSERVATIONS FROM AROUND THE REGION...

CITY           SKY/WX    TMP DP  RH WIND       PRES   REMARKS
DENVER         CLOUDY    56   6  13 W15       29.91R
LIMON          CLOUDY    40  16  37 CALM      29.92R
ASPEN          CLOUDY    31  22  69 SE3       30.19R
LARAMIE        CLOUDY    37  22  54 W36G48    29.94F WCI  23
CASPER         CLEAR     41  25  53 SW20G32   29.89R
CHEYENNE       CLOUDY    48  14  25 W33G45    29.87F
SCOTTSBLUFF    CLEAR     53  21  28 W15       29.80R
GRAND ISLAND   CLEAR     35  25  66 W8        29.75R WCI  29
OMAHA          CLOUDY    39  28  64 CALM      29.70R
SIOUX FALLS    CLOUDY    40  24  53 N17G24    29.73R WCI  31
PIERRE         CLOUDY    40  23  50 N17       29.81R WCI  31
RAPID CITY     CLOUDY    37  26  64 N15       29.86R WCI  28
BISMARCK       CLOUDY    22   5  48 NW28G39   29.91R WCI   4
KANSAS CITY    CLEAR     49  30  48 SW13      29.74S
HILL CITY      CLOUDY    53  24  32 N13       29.77S
WICHITA        CLOUDY    49  31  49 S15       29.79S
DODGE CITY     CLOUDY    47  20  34 W10       29.79F
OKLAHOMA CITY  CLOUDY    45  31  58 S12       29.83F
DALLAS         CLOUDY    51  36  56 S8        29.91F
AMARILLO       CLOUDY    41  19  41 SW5       29.81S
$$




USA.gov is the U.S. government's official web portal to all federal, state and local government web resources and services.